Change the Weather History Date:

Monday, March 25, 2013

  Actual Average Record
Temperature  
Mean Temperature 26 °F -  
Max Temperature 30 °F 53 °F 84 °F (2007)
Min Temperature 23 °F 30 °F -99 °F (2002)
Degree Days  
Heating Degree Days 38    
Moisture  
Dew Point 21 °F    
Average Humidity 81    
Maximum Humidity 93    
Minimum Humidity 69    
Precipitation  
Precipitation 0.00 in - - ()
Sea Level Pressure  
Sea Level Pressure 30.16 in    
Wind  
Wind Speed 13 mph (NW)    
Max Wind Speed 17 mph    
Max Gust Speed 25 mph    
Visibility 8 miles    
Events Snow    
Averages and records for this station are not official NWS values.
T = Trace of Precipitation, MM = Missing Value Source: NWS Daily Summary

Daily Weather History Graph

Daily Weather History Graph

Search for Another Location

Airport or City:

Trip Planner

Search our weather history database for the weather conditions in past years. The results will help you decide how hot, cold, wet, or windy it might be!

Date:

Astronomy

Mar. 25, 2013 Rise Set
Actual Time 7:14 AM CDT 7:37 PM CDT
Civil Twilight 6:47 AM CDT 8:05 PM CDT
Nautical Twilight 6:15 AM CDT 8:37 PM CDT
Astronomical Twilight 5:42 AM CDT 9:10 PM CDT
Moon 6:10 PM CDT (3/25) 5:59 AM CDT (3/25)
Length of Visible Light 13h 17m
Length of Day
12h 23m
Waxing Gibbous, 96% of the Moon is Illuminated
Mar 25
Waxing Gibbous
Mar 27
Full
Apr 2
Last Quarter
Apr 10
New
Apr 18
First Quarter

Hourly Weather History & Observations

Time (CDT) Temp. Windchill Dew Point Humidity Pressure Visibility Wind Dir Wind Speed Gust Speed Precip Events Conditions
12:15 AM 24.8 °F 14.0 °F 21.2 °F 86% 30.03 in 7.0 mi NW 11.5 mph 18.4 mph N/A   Clear
12:35 AM 24.8 °F 12.9 °F 21.2 °F 86% 30.04 in 10.0 mi NW 13.8 mph 18.4 mph N/A   Clear
12:55 AM 24.8 °F 14.0 °F 21.2 °F 86% 30.03 in 10.0 mi NW 11.5 mph - N/A   Clear
1:15 AM 24.8 °F 12.4 °F 21.2 °F 86% 30.03 in 10.0 mi NW 15.0 mph 19.6 mph N/A   Scattered Clouds
1:35 AM 24.8 °F 14.0 °F 21.2 °F 86% 30.03 in 7.0 mi NW 11.5 mph 19.6 mph N/A   Mostly Cloudy
1:55 AM 24.8 °F 12.9 °F 21.2 °F 86% 30.03 in 7.0 mi NW 13.8 mph - N/A   Overcast
2:15 AM 24.8 °F 13.4 °F 21.2 °F 86% 30.03 in 5.0 mi NW 12.7 mph 18.4 mph N/A   Overcast
2:35 AM 24.8 °F 12.9 °F 21.2 °F 86% 30.03 in 4.0 mi NW 13.8 mph 19.6 mph N/A Snow Light Snow
2:55 AM 24.8 °F 13.4 °F 23.0 °F 93% 30.03 in 4.0 mi NW 12.7 mph 18.4 mph N/A Snow Light Snow
3:15 AM 24.8 °F 14.6 °F 23.0 °F 93% 30.03 in 3.0 mi NW 10.4 mph - N/A Snow Light Snow
3:35 AM 24.8 °F 14.6 °F 23.0 °F 93% 30.03 in 4.0 mi NW 10.4 mph - N/A   Overcast
3:55 AM 24.8 °F 14.0 °F 23.0 °F 93% 30.03 in 5.0 mi NW 11.5 mph - N/A   Overcast
4:15 AM 24.8 °F 12.9 °F 23.0 °F 93% 30.03 in 7.0 mi NW 13.8 mph - N/A   Mostly Cloudy
4:35 AM 24.8 °F 13.4 °F 21.2 °F 86% 30.04 in 10.0 mi NNW 12.7 mph 19.6 mph N/A   Overcast
4:55 AM 24.8 °F 12.9 °F 23.0 °F 93% 30.04 in 3.0 mi NNW 13.8 mph 21.9 mph N/A Snow Light Snow
5:15 AM 24.8 °F 11.5 °F 21.2 °F 86% 30.05 in 3.0 mi NNW 17.3 mph 20.7 mph N/A Snow Light Snow
5:35 AM 24.8 °F 12.9 °F 21.2 °F 86% 30.06 in 3.0 mi NW 13.8 mph 19.6 mph N/A Snow Light Snow
6:15 AM 24.8 °F 12.9 °F 21.2 °F 86% 30.07 in 7.0 mi NW 13.8 mph 23.0 mph N/A   Overcast
6:35 AM 24.8 °F 11.9 °F 21.2 °F 86% 30.08 in 7.0 mi NNW 16.1 mph 25.3 mph N/A   Overcast
6:55 AM 23.0 °F 10.1 °F 21.2 °F 93% 30.09 in 5.0 mi NW 15.0 mph 20.7 mph N/A   Overcast
7:15 AM 23.0 °F 10.6 °F 21.2 °F 93% 30.09 in 4.0 mi NW 13.8 mph 23.0 mph N/A Snow Light Snow
7:35 AM 23.0 °F 10.6 °F 19.4 °F 86% 30.10 in 4.0 mi NW 13.8 mph 20.7 mph N/A   Overcast
7:55 AM 23.0 °F 10.6 °F 19.4 °F 86% 30.11 in 5.0 mi NW 13.8 mph 21.9 mph N/A   Mostly Cloudy
8:15 AM 23.0 °F 10.6 °F 19.4 °F 86% 30.11 in 7.0 mi NW 13.8 mph 25.3 mph N/A   Scattered Clouds
8:35 AM 23.0 °F 10.1 °F 19.4 °F 86% 30.12 in 10.0 mi NW 15.0 mph 25.3 mph N/A   Clear
8:55 AM 23.0 °F 10.1 °F 19.4 °F 86% 30.13 in 5.0 mi NW 15.0 mph 23.0 mph N/A Snow Light Snow
9:15 AM 23.0 °F 11.7 °F 19.4 °F 86% 30.14 in 4.0 mi NW 11.5 mph 23.0 mph N/A   Scattered Clouds
9:35 AM 24.8 °F 12.9 °F 19.4 °F 80% 30.14 in 4.0 mi NW 13.8 mph - N/A   Mostly Cloudy
9:55 AM 24.8 °F 13.4 °F 21.2 °F 86% 30.15 in 3.0 mi NW 12.7 mph 20.7 mph N/A   Mostly Cloudy
10:15 AM 24.8 °F 12.9 °F 21.2 °F 86% 30.15 in 4.0 mi NW 13.8 mph 18.4 mph N/A   Scattered Clouds
10:35 AM 24.8 °F 13.4 °F 21.2 °F 86% 30.16 in 2.5 mi NW 12.7 mph - N/A   Scattered Clouds
10:55 AM 24.8 °F 13.4 °F 21.2 °F 86% 30.17 in 3.0 mi NW 12.7 mph - N/A   Mist
11:15 AM 26.6 °F 15.7 °F 21.2 °F 80% 30.17 in 5.0 mi NW 12.7 mph 17.3 mph N/A   Clear
11:35 AM 26.6 °F 15.2 °F 21.2 °F 80% 30.18 in 4.0 mi NNW 13.8 mph 20.7 mph N/A   Scattered Clouds
11:55 AM 26.6 °F 15.7 °F 23.0 °F 86% 30.18 in 5.0 mi NW 12.7 mph 20.7 mph N/A   Scattered Clouds
12:15 PM 26.6 °F 14.3 °F 23.0 °F 86% 30.18 in 7.0 mi NNW 16.1 mph 19.6 mph N/A   Scattered Clouds
12:35 PM 26.6 °F 16.2 °F 23.0 °F 86% 30.19 in 10.0 mi NNW 11.5 mph 18.4 mph N/A   Mostly Cloudy
12:55 PM 28.4 °F 18.0 °F 23.0 °F 80% 30.19 in 10.0 mi NNW 12.7 mph 20.7 mph N/A   Mostly Cloudy
1:15 PM 28.4 °F 16.6 °F 21.2 °F 74% 30.19 in 10.0 mi NNW 16.1 mph 21.9 mph N/A   Mostly Cloudy
1:35 PM 28.4 °F 17.0 °F 21.2 °F 74% 30.19 in 10.0 mi NNW 15.0 mph 23.0 mph N/A   Mostly Cloudy
1:55 PM 28.4 °F 18.5 °F 21.2 °F 74% 30.19 in 10.0 mi NNW 11.5 mph 20.7 mph N/A   Overcast
2:15 PM 30.2 °F 19.3 °F 21.2 °F 69% 30.19 in 10.0 mi NNW 15.0 mph 18.4 mph N/A   Overcast
2:35 PM 30.2 °F 20.8 °F 21.2 °F 69% 30.19 in 10.0 mi NNW 11.5 mph 21.9 mph N/A   Overcast
2:55 PM 28.4 °F 16.2 °F 21.2 °F 74% 30.20 in 10.0 mi NNW 17.3 mph 21.9 mph N/A   Overcast
3:15 PM 30.2 °F 20.2 °F 21.2 °F 69% 30.20 in 10.0 mi NNW 12.7 mph 19.6 mph N/A   Overcast
3:35 PM 30.2 °F 19.8 °F 21.2 °F 69% 30.20 in 10.0 mi NNW 13.8 mph 20.7 mph N/A   Overcast
3:55 PM 30.2 °F 19.3 °F 21.2 °F 69% 30.20 in 10.0 mi NNW 15.0 mph 19.6 mph N/A   Overcast
4:15 PM 28.4 °F 19.7 °F 21.2 °F 74% 30.21 in 10.0 mi NW 9.2 mph 16.1 mph N/A   Overcast
4:35 PM 28.4 °F 18.5 °F 21.2 °F 74% 30.21 in 10.0 mi NW 11.5 mph - N/A   Overcast
4:55 PM 30.2 °F 18.9 °F 21.2 °F 69% 30.21 in 10.0 mi NW 16.1 mph 21.9 mph N/A   Mostly Cloudy
5:15 PM 30.2 °F 19.8 °F 21.2 °F 69% 30.22 in 10.0 mi NW 13.8 mph 19.6 mph N/A   Scattered Clouds
5:35 PM 30.2 °F 18.9 °F 21.2 °F 69% 30.22 in 10.0 mi NW 16.1 mph 20.7 mph N/A   Mostly Cloudy
5:55 PM 28.4 °F 18.0 °F 21.2 °F 74% 30.23 in 10.0 mi NW 12.7 mph 20.7 mph N/A   Mostly Cloudy
6:15 PM 28.4 °F 18.0 °F 19.4 °F 69% 30.24 in 10.0 mi NW 12.7 mph - N/A   Overcast
6:35 PM 28.4 °F 17.0 °F 19.4 °F 69% 30.24 in 10.0 mi NW 15.0 mph 18.4 mph N/A   Overcast
6:55 PM 28.4 °F 18.5 °F 19.4 °F 69% 30.25 in 10.0 mi NW 11.5 mph 16.1 mph N/A   Overcast
7:15 PM 26.6 °F 16.2 °F 19.4 °F 74% 30.26 in 10.0 mi NW 11.5 mph 17.3 mph N/A   Overcast
7:35 PM 26.6 °F 16.8 °F 21.2 °F 80% 30.27 in 10.0 mi NW 10.4 mph - N/A   Overcast
7:55 PM 26.6 °F 17.5 °F 21.2 °F 80% 30.27 in 10.0 mi NW 9.2 mph - N/A   Overcast
8:15 PM 26.6 °F 16.2 °F 19.4 °F 74% 30.27 in 10.0 mi NW 11.5 mph - N/A   Overcast
8:35 PM 26.6 °F 17.5 °F 21.2 °F 80% 30.28 in 10.0 mi NW 9.2 mph - N/A   Mostly Cloudy
8:55 PM 26.6 °F 18.2 °F 19.4 °F 74% 30.28 in 10.0 mi NW 8.1 mph - N/A   Scattered Clouds
9:15 PM 24.8 °F 14.6 °F 19.4 °F 80% 30.29 in 10.0 mi NW 10.4 mph - N/A   Scattered Clouds
9:35 PM 24.8 °F 16.9 °F 19.4 °F 80% 30.30 in 10.0 mi NW 6.9 mph - N/A   Mostly Cloudy
9:55 PM 24.8 °F 15.3 °F 19.4 °F 80% 30.30 in 10.0 mi NW 9.2 mph - N/A   Overcast
10:15 PM 24.8 °F 16.9 °F 19.4 °F 80% 30.30 in 10.0 mi NW 6.9 mph - N/A   Overcast
10:35 PM 26.6 °F 18.2 °F 19.4 °F 74% 30.31 in 10.0 mi NW 8.1 mph - N/A   Overcast
10:55 PM 26.6 °F 19.1 °F 19.4 °F 74% 30.31 in 10.0 mi NW 6.9 mph - N/A   Overcast
11:15 PM 26.6 °F 18.2 °F 19.4 °F 74% 30.31 in 10.0 mi NW 8.1 mph - N/A   Overcast
11:35 PM 24.8 °F 16.1 °F 19.4 °F 80% 30.31 in 10.0 mi WNW 8.1 mph - N/A   Overcast
11:55 PM 24.8 °F 16.1 °F 19.4 °F 80% 30.32 in 10.0 mi NW 8.1 mph - N/A   Overcast